Date String (YYYY-MM-DD hh:mm:ss) UTC,Instrument flags,Ambient pressure (hPa),Sample flow (lpm),Bypass flow (lpm),Sample temperature (°C),Ambient temperature (°C),ASC tube jacket temperature (°C),LED temperature (°C),Box temperature (°C),Sample RH (%),Span deviation,Mass concentration (μg/m³),Mass concentration (μg/m³),Mass concentration (μg/m³)
DateTimeUTC,F1_M11,P_M11,Q1_M11,Q2_M11,T1_M11,T2_M11,T3_M11,T4_M11,T5_M11,U1_M11,ZSPAN_M11,X0_M11,X2_M11,X1_M11
2022-02-21 19:00:00,,0813.5,4.99,0.00,23.8,23.1,00.0,32.8,25.6,11.2,0002.1,0013.06,0005.73,0004.84
2022-02-21 19:01:00,,0813.6,5.02,0.00,23.8,23.1,00.0,32.8,25.6,11.1,0002.3,0013.38,0005.73,0004.83
2022-02-21 19:02:00,,0813.5,4.99,0.00,23.8,23.1,00.0,32.8,25.5,10.9,0001.6,0013.59,0005.75,0004.83
2022-02-21 19:03:00,,0813.4,5.01,0.00,23.8,23.0,00.0,32.8,25.5,11.0,-000.0,0013.66,0005.82,0004.84
2022-02-21 19:04:00,,0813.4,4.98,0.00,23.7,23.0,00.0,32.8,25.5,11.0,-000.3,0013.90,0005.85,0004.85
2022-02-21 19:05:00,,0813.5,5.01,0.00,23.7,22.9,00.0,32.8,25.5,11.0,-000.7,0015.42,0005.87,0004.85
2022-02-21 19:06:00,,0813.4,4.98,0.00,23.7,22.9,00.0,32.8,25.4,11.0,-000.6,0015.07,0005.92,0004.85
2022-02-21 19:07:00,,0813.4,5.02,0.00,23.7,22.9,00.0,32.7,25.4,11.0,-000.2,0015.58,0005.94,0004.87
2022-02-21 19:08:00,,0813.5,5.00,0.00,23.6,22.8,00.0,32.7,25.4,11.0,0000.2,0015.44,0005.90,0004.88
2022-02-21 19:09:00,,0813.4,5.00,0.00,23.6,22.8,00.0,32.7,25.3,11.2,0000.2,0015.34,0005.90,0004.87
2022-02-21 19:10:00,,0813.5,4.99,0.00,23.6,22.8,00.0,32.7,25.3,11.0,-000.2,0015.31,0005.90,0004.88
2022-02-21 19:11:00,,0813.5,5.00,0.00,23.6,22.8,00.0,32.7,25.3,11.1,-000.6,0015.66,0005.94,0004.91
2022-02-21 19:12:00,,0813.5,5.00,0.00,23.6,22.8,00.0,32.7,25.3,11.0,-000.5,0015.31,0005.93,0004.91
2022-02-21 19:13:00,,0813.4,4.99,0.00,23.5,22.8,00.0,32.6,25.3,11.1,-000.1,0015.87,0005.95,0004.92
2022-02-21 19:14:00,,0813.4,5.01,0.00,23.5,22.8,00.0,32.6,25.2,11.2,0000.3,0015.90,0005.96,0004.92
2022-02-21 19:15:00,,0813.4,5.00,0.00,23.5,22.8,00.0,32.6,25.2,11.3,0000.3,0015.70,0005.92,0004.93
2022-02-21 19:16:00,,0813.5,4.99,0.00,23.5,22.8,00.0,32.6,25.2,11.3,-000.0,0014.34,0005.93,0004.92
2022-02-21 19:17:00,,0813.4,5.00,0.00,23.5,22.7,00.0,32.6,25.2,11.3,0000.2,0014.52,0005.93,0004.93
2022-02-21 19:18:00,,0813.5,5.01,0.00,23.5,22.7,00.0,32.6,25.2,11.2,-000.6,0014.01,0005.92,0004.92
2022-02-21 19:19:00,,0813.4,4.98,0.00,23.5,22.7,00.0,32.6,25.2,11.1,-000.9,0013.86,0005.97,0004.92
2022-02-21 19:20:00,,0813.3,5.02,0.00,23.4,22.7,00.0,32.5,25.2,11.0,-000.9,0013.77,0006.02,0004.92
2022-02-21 19:21:00,,0813.4,5.01,0.00,23.4,22.7,00.0,32.5,25.1,11.0,0000.1,0013.71,0006.05,0004.93
2022-02-21 19:22:00,,0813.4,5.00,0.00,23.4,22.7,00.0,32.5,25.1,11.0,0000.6,0013.68,0006.08,0004.93
2022-02-21 19:23:00,,0813.4,5.00,0.00,23.4,22.7,00.0,32.5,25.1,11.1,0000.9,0013.60,0006.11,0004.94
2022-02-21 19:24:00,,0813.4,5.01,0.00,23.4,22.7,00.0,32.5,25.1,11.1,0000.7,0013.57,0006.14,0004.94
2022-02-21 19:25:00,,0813.4,4.99,0.00,23.4,22.7,00.0,32.5,25.1,11.0,0000.9,0013.16,0006.08,0004.93
2022-02-21 19:26:00,,0813.3,5.01,0.00,23.4,22.6,00.0,32.5,25.1,10.9,0001.4,0013.86,0006.14,0004.95
2022-02-21 19:27:00,,0813.3,4.99,0.00,23.4,22.6,00.0,32.5,25.1,11.0,0001.8,0013.82,0006.14,0004.95
2022-02-21 19:28:00,,0813.3,5.01,0.00,23.3,22.6,00.0,32.4,25.1,11.2,0001.8,0013.80,0006.12,0004.95
2022-02-21 19:29:00,,0813.2,5.00,0.00,23.3,22.6,00.0,32.4,25.0,11.0,0002.2,0013.93,0006.14,0004.96
2022-02-21 19:30:00,,0813.2,5.00,0.00,23.3,22.5,00.0,32.4,25.0,10.8,0002.6,0014.18,0006.19,0004.97
2022-02-21 19:31:00,,0813.2,4.99,0.00,23.3,22.5,00.0,32.4,25.0,10.8,0003.0,0014.62,0006.13,0004.96
2022-02-21 19:32:00,,0813.1,5.01,0.00,23.3,22.5,00.0,32.4,25.0,10.8,0003.0,0014.81,0006.10,0004.95
2022-02-21 19:33:00,,0813.1,4.99,0.00,23.2,22.4,00.0,32.4,24.9,10.9,0002.9,0014.58,0006.02,0004.94
2022-02-21 19:34:00,,0813.0,5.01,0.00,23.2,22.4,00.0,32.3,24.9,11.1,0002.5,0014.68,0005.99,0004.93
2022-02-21 19:35:00,,0813.0,4.99,0.00,23.2,22.4,00.0,32.3,24.9,11.2,0002.6,0014.07,0005.95,0004.93
2022-02-21 19:36:00,,0813.0,5.02,0.00,23.2,22.4,00.0,32.3,24.9,11.0,0002.7,0015.13,0005.95,0004.93
2022-02-21 19:37:00,,0813.0,4.98,0.00,23.1,22.3,00.0,32.3,24.9,10.9,0002.4,0014.40,0005.92,0004.92
2022-02-21 19:38:00,,0813.1,5.01,0.00,23.1,22.3,00.0,32.3,24.9,11.0,0002.3,0014.29,0005.92,0004.92
2022-02-21 19:39:00,,0813.1,5.00,0.00,23.1,22.3,00.0,32.3,24.8,10.9,0002.5,0013.75,0005.90,0004.92
2022-02-21 19:40:00,,0813.0,5.00,0.00,23.1,22.3,00.0,32.2,24.8,11.1,0002.7,0013.69,0005.88,0004.92
2022-02-21 19:41:00,,0813.1,5.01,0.00,23.1,22.3,00.0,32.2,24.8,11.1,0002.7,0013.99,0005.84,0004.91
2022-02-21 19:42:00,,0813.0,4.99,0.00,23.1,22.3,00.0,32.2,24.8,11.2,0002.5,0013.75,0005.91,0004.92
2022-02-21 19:43:00,,0813.0,5.00,0.00,23.0,22.3,00.0,32.2,24.8,11.2,0001.6,0013.30,0005.91,0004.93
2022-02-21 19:44:00,,0813.0,5.00,0.00,23.0,22.3,00.0,32.2,24.8,11.2,0001.6,0013.12,0005.93,0004.93
2022-02-21 19:45:00,,0813.0,5.00,0.00,23.0,22.3,00.0,32.2,24.8,11.1,0002.4,0012.76,0005.95,0004.94
2022-02-21 19:46:00,,0813.0,5.02,0.00,23.0,22.3,00.0,32.1,24.8,10.9,0002.4,0012.84,0005.97,0004.94
2022-02-21 19:47:00,,0813.0,5.00,0.00,23.0,22.3,00.0,32.1,24.7,10.9,0003.0,0012.14,0005.97,0004.94
2022-02-21 19:48:00,,0813.1,4.99,0.00,23.0,22.2,00.0,32.1,24.7,11.0,0002.6,0011.96,0005.92,0004.93
2022-02-21 19:49:00,,0813.0,5.01,0.00,23.0,22.3,00.0,32.1,24.7,11.1,0000.0,0012.11,0005.95,0004.95
2022-02-21 19:50:00,,0813.0,5.00,0.00,23.0,22.3,00.0,32.1,24.7,11.0,0000.0,0012.12,0005.95,0004.96
2022-02-21 19:51:00,,0813.1,5.00,0.00,22.9,22.2,00.0,32.1,24.7,10.9,0000.4,0011.92,0005.95,0004.98
2022-02-21 19:52:00,,0813.1,5.01,0.00,22.9,22.2,00.0,32.1,24.7,10.9,0000.4,0011.21,0005.96,0004.99
2022-02-21 19:53:00,,0813.2,5.01,0.00,22.9,22.2,00.0,32.0,24.7,10.9,0000.0,0011.49,0005.93,0005.00
2022-02-21 19:54:00,,0813.2,5.00,0.00,22.9,22.2,00.0,32.0,24.7,11.0,0001.3,0012.17,0005.96,0005.02
2022-02-21 19:55:00,,0813.1,5.00,0.00,22.9,22.2,00.0,32.0,24.6,11.1,0001.4,0012.60,0005.98,0005.03
2022-02-21 19:56:00,,0813.2,5.01,0.00,22.9,22.2,00.0,32.0,24.6,11.0,0000.8,0013.75,0005.96,0005.03
2022-02-21 19:57:00,,0813.1,5.00,0.00,22.9,22.1,00.0,32.0,24.6,10.9,0000.7,0013.35,0005.92,0005.04
2022-02-21 19:58:00,,0813.0,4.99,0.00,22.8,22.1,00.0,32.0,24.6,10.9,0000.8,0013.06,0005.96,0005.05
2022-02-21 19:59:00,,0813.0,5.02,0.00,22.8,22.1,00.0,32.0,24.6,11.0,0001.0,0014.69,0006.00,0005.07
